STARLINK-32208, 60598

Orbit data source: Space-Track

STARLINK-32208, 60598 is a payload satellite owned by SpaceX/Seattle (US) in LEO that was launched on Tue, 20 Aug 2024 UTC via an FALCON 9 launch vehicle from the Air Force Eastern Test Range (AFETR). Payload-class satellites include a variety of spacecraft equipped with specific instruments for various scientific and technological missions. These include communications satellites like Starlink; space stations such as the ISS; scientific satellites like the Hubble; Earth observation satellites from companies like Planet Labs, Umbra, and HawkEye 360; GPS; miniature CubeSats for education and research; and military/defense satellites.

Loading next visibility...
Identifier
60598, 2024-150R
Orbit
LEO
Country
Flag of USUS
Related business
Manufacturer
SpaceX/Seattle
Mission
Operational Commercial Communications
Bus & Motor
STARLINK V2M, Unknown motor
Mass
730 kg wet, ~700 kg dry
Launch date (UTC)
2024-08-20 (2 years ago)
Launch vehicle
FALCON 9
Launch site
Air Force Eastern Test Range (AFETR)
Object type
Payload
Rocket body
Debris
Shape & HBR
Box + 2 Pan, 17.7 m
Radar Cross Section
33.884 m², Large (>1 m²)

Expand to show TLE details & history
Last TLE update: 12 hours ago

TLE from 12 hours ago
0 STARLINK-32208
1 60598U 24150R   26171.34836255  .00001540  00000-0  64112-4 0  9991
2 60598  53.1588 190.5605 0000862 100.0895 260.0203 15.30194779103750
Epoch: 2026-06-20T08:21Z
TLE epoch observation values (Epoch: 2026-06-20T08:21:38.524Z)
Latitude
-0.00001°
Longitude
156.5857°
Altitude
476.233 km
Speed
7.629 km/s
True Right ascension
12h 42m 14s
True Declination
0° 00' 00"
Sunlit
Object was in daylight at epoch
Visualization orbit readout
Latitude
Unknown
Longitude
Unknown
Altitude
Unknown
Speed
Unknown
Apparent Right ascension
Unknown
Apparent Declination
Unknown
Sunlit
N/A
Visualization observer readout
Local Sidereal Time
07:15:27
Azimuth
Unknown
Elevation
Unknown
Doppler factor
Unknown
Orbital elements
Apogee altitude
476.078 km
Perigee altitude
474.897 km
Semi-major axis
6,853.624 km
Eccentricity
0.00009
Inclination
53.1588°
RAAN
190.5605°
Arg. of periapsis
100.0895°
True anomaly
260.01057°
Mean anomaly
260.0203°
Eccentric anomaly
260.01544°
Mean motion
3.82528 °/min
Orbital period
94.11 mins
BSTAR
0.000064112
Loading maneuver chart data...
Computing Atmospheric mass density...
Loading historical data...
Loading historical data...
Loading historical data...
Loading historical data...
Loading historical data...
Loading historical data...
Loading historical data...

Documentation

Showing up to 5 results
|